Weather History for Sheridan, WY

Change the Weather History Date:

Friday, November 9, 2012

  Actual Average Record
Temperature  
Mean Temperature 29 °F 36 °F  
Max Temperature 34 °F 50 °F 73 °F (2001)
Min Temperature 23 °F 22 °F -9 °F (1966)
Degree Days  
Heating Degree Days 36 29  
Month to date heating degree days 184 245  
Since 1 July heating degree days 958 1153  
Cooling Degree Days 0 0  
Month to date cooling degree days 0 0  
Year to date cooling degree days 664 419  
Moisture  
Dew Point 29 °F    
Average Humidity 95    
Maximum Humidity 100    
Minimum Humidity 89    
Precipitation  
Precipitation 0.42 in 0.02 in 0.85 in (1978)
Month to date precipitation 0.42 0.23  
Year to date precipitation 8.36 13.12  
Sea Level Pressure  
Sea Level Pressure 29.71 in    
Wind  
Wind Speed 10 mph (NW)    
Max Wind Speed 23 mph    
Max Gust Speed 28 mph    
Visibility 4 miles    
Events Fog , Snow    
T = Trace of Precipitation, MM = Missing Value Source: NWS Daily Summary

Daily Weather History Graph

Daily Weather History Graph

Search for Another Location

Airport:

Trip Planner

Search our weather history database for the weather conditions in past years. The results will help you decide how hot, cold, wet, or windy it might be!

Date:

Astronomy

Nov. 09, 2012 Rise Set
Actual Time 6:57 AM MST 4:45 PM MST
Civil Twilight 6:26 AM MST 5:16 PM MST
Nautical Twilight 5:51 AM MST 5:51 PM MST
Astronomical Twilight 5:16 AM MST 6:25 PM MST
Moon 1:48 AM MST (11/9) 2:10 PM MST (11/9)
Length of Visible Light 10h 50m
Length of Day
9h 47m
Waning Crescent, 22% of the Moon is Illuminated
Nov 9
Waning Crescent
Nov 13
New
Nov 20
First Quarter
Nov 28
Full
Dec 6
Last Quarter

Hourly Weather History & Observations

Time (MST) Temp. Windchill Dew Point Humidity Pressure Visibility Wind Dir Wind Speed Gust Speed Precip Events Conditions
12:51 AM 23.0 °F 15.8 °F 21.2 °F 93% 29.67 in 10.0 mi WNW 5.8 mph - N/A   Partly Cloudy
12:53 AM 23.0 °F 18.4 °F 21.9 °F 96% 29.72 in 10.0 mi Variable 3.5 mph - N/A   Scattered Clouds
1:07 AM 24.8 °F 16.1 °F 23.0 °F 93% 29.68 in 10.0 mi WNW 8.1 mph - N/A   Mostly Cloudy
1:53 AM 27.0 °F 20.5 °F 26.1 °F 96% 29.70 in 10.0 mi Variable 5.8 mph - N/A   Overcast
2:19 AM 26.6 °F 19.1 °F 26.6 °F 100% 29.67 in 10.0 mi NW 6.9 mph - N/A   Overcast
2:53 AM 28.0 °F 20.0 °F 27.0 °F 96% 29.71 in 10.0 mi NW 8.1 mph - N/A   Overcast
3:53 AM 28.9 °F 21.1 °F 27.0 °F 92% 29.70 in 10.0 mi NW 8.1 mph - N/A   Overcast
4:53 AM 30.0 °F 23.2 °F 28.0 °F 92% 29.70 in 10.0 mi NW 6.9 mph - N/A   Overcast
5:53 AM 30.9 °F 25.2 °F 28.9 °F 92% 29.70 in 7.0 mi WNW 5.8 mph - N/A   Overcast
6:53 AM 30.9 °F - 30.0 °F 96% 29.69 in 3.0 mi Calm Calm - N/A   Overcast
7:12 AM 30.2 °F 26.7 °F 30.2 °F 100% 29.62 in 3.0 mi WNW 3.5 mph - N/A   Overcast
7:27 AM 30.2 °F 25.4 °F 30.2 °F 100% 29.63 in 4.0 mi WNW 4.6 mph - N/A   Overcast
7:46 AM 30.2 °F 25.4 °F 30.2 °F 100% 29.64 in 2.5 mi NW 4.6 mph - N/A   Overcast
7:53 AM 30.9 °F 24.3 °F 30.0 °F 96% 29.71 in 2.5 mi NW 6.9 mph - N/A   Overcast
8:24 AM 30.2 °F 21.9 °F 30.2 °F 100% 29.65 in 2.5 mi NW 9.2 mph - N/A   Overcast
8:32 AM 30.2 °F 21.3 °F 30.2 °F 100% 29.65 in 4.0 mi NW 10.4 mph - N/A   Overcast
8:53 AM 32.0 °F 23.0 °F 30.9 °F 96% 29.74 in 4.0 mi NW 11.5 mph - N/A   Overcast
9:20 AM 32.0 °F 22.1 °F 30.2 °F 93% 29.67 in 5.0 mi NW 13.8 mph - N/A   Overcast
9:53 AM 32.0 °F 22.5 °F 30.9 °F 96% 29.77 in 10.0 mi NW 12.7 mph - N/A   Overcast
10:30 AM 33.8 °F 25.8 °F 30.2 °F 87% 29.68 in 10.0 mi NW 10.4 mph - N/A   Overcast
10:39 AM 33.8 °F 24.8 °F 30.2 °F 87% 29.68 in 10.0 mi NW 12.7 mph - N/A   Overcast
10:53 AM 33.1 °F 24.9 °F 30.9 °F 92% 29.78 in 10.0 mi NW 10.4 mph - N/A   Overcast
11:33 AM 33.8 °F 24.8 °F 30.2 °F 87% 29.67 in 10.0 mi NW 12.7 mph - N/A   Overcast
11:53 AM 34.0 °F 24.6 °F 30.9 °F 89% 29.76 in 10.0 mi NW 13.8 mph - N/A   Overcast
12:53 PM 33.1 °F 23.9 °F 30.0 °F 89% 29.77 in 10.0 mi NW 12.7 mph - N/A   Overcast
1:53 PM 33.1 °F 26.9 °F 30.9 °F 92% 29.76 in 5.0 mi NNW 6.9 mph - 0.00 in Snow Light Snow
2:26 PM 32.0 °F 24.2 °F 30.2 °F 93% 29.65 in 2.0 mi NNW 9.2 mph - 0.00 in Snow Light Snow
2:33 PM 32.0 °F 24.8 °F 30.2 °F 93% 29.66 in 0.8 mi NNW 8.1 mph - 0.01 in Snow Light Snow
2:40 PM 32.0 °F 24.8 °F 30.2 °F 93% 29.66 in 0.5 mi NNW 8.1 mph - 0.02 in Fog , Snow Snow
2:53 PM 32.0 °F 26.4 °F 30.9 °F 96% 29.75 in 0.5 mi NNW 5.8 mph - 0.04 in Fog , Snow Snow
3:31 PM 30.2 °F 22.6 °F 30.2 °F 100% 29.69 in 0.2 mi NW 8.1 mph - 0.06 in Fog , Snow Heavy Snow
3:41 PM 30.2 °F 22.6 °F 30.2 °F 100% 29.69 in 0.5 mi WNW 8.1 mph - 0.07 in Fog , Snow Snow
3:49 PM 30.2 °F 21.9 °F 30.2 °F 100% 29.69 in 0.8 mi WNW 9.2 mph - 0.08 in Snow Light Snow
3:53 PM 30.9 °F 23.5 °F 30.0 °F 96% 29.78 in 0.8 mi WNW 8.1 mph - 0.08 in Snow Light Snow
4:00 PM 30.2 °F 23.4 °F 30.2 °F 100% 29.69 in 1.2 mi WNW 6.9 mph - 0.00 in Snow Light Snow
4:15 PM 30.2 °F 24.3 °F 30.2 °F 100% 29.69 in 0.5 mi WNW 5.8 mph - 0.01 in Fog , Snow Snow
4:27 PM 30.2 °F 21.3 °F 30.2 °F 100% 29.69 in 0.2 mi WNW 10.4 mph - 0.03 in Fog , Snow Snow
4:34 PM 30.2 °F 21.9 °F 30.2 °F 100% 29.69 in 0.8 mi NW 9.2 mph - 0.04 in Snow Light Snow
4:40 PM 30.2 °F 21.9 °F 30.2 °F 100% 29.68 in 1.0 mi NW 9.2 mph - 0.04 in Snow Light Snow
4:50 PM 30.2 °F 21.9 °F 30.2 °F 100% 29.69 in 2.0 mi NW 9.2 mph - 0.04 in Snow Light Snow
4:51 PM 30.9 °F 22.8 °F 30.0 °F 96% 29.78 in 2.0 mi NW 9.2 mph - 0.04 in Snow Light Snow
5:19 PM 30.2 °F 22.6 °F 30.2 °F 100% 29.69 in 4.0 mi WNW 8.1 mph - 0.01 in Snow Light Snow
5:37 PM 30.2 °F 25.4 °F 30.2 °F 100% 29.69 in 6.0 mi West 4.6 mph - 0.01 in Snow Light Snow
5:53 PM 30.9 °F 24.3 °F 30.0 °F 96% 29.79 in 3.0 mi West 6.9 mph - 0.01 in Snow Light Snow
6:00 PM 30.2 °F 22.6 °F 30.2 °F 100% 29.71 in 2.0 mi WNW 8.1 mph - 0.00 in Snow Light Snow
6:04 PM 30.2 °F 21.9 °F 30.2 °F 100% 29.70 in 1.8 mi NW 9.2 mph - 0.00 in Snow Light Snow
6:18 PM 30.2 °F 23.4 °F 30.2 °F 100% 29.69 in 0.8 mi NW 6.9 mph - 0.02 in Snow Light Snow
6:29 PM 30.2 °F 25.4 °F 30.2 °F 100% 29.69 in 0.5 mi NW 4.6 mph - 0.03 in Fog , Snow Snow
6:49 PM 30.2 °F 22.6 °F 30.2 °F 100% 29.69 in 1.0 mi WNW 8.1 mph - 0.07 in Snow Light Snow
6:50 PM 30.9 °F 23.5 °F 30.0 °F 96% 29.78 in 1.0 mi WNW 8.1 mph - 0.07 in Snow Light Snow
6:57 PM 30.2 °F 21.3 °F 30.2 °F 100% 29.69 in 1.5 mi WNW 10.4 mph - 0.01 in Snow Light Snow
7:10 PM 30.2 °F 22.6 °F 30.2 °F 100% 29.70 in 1.2 mi WNW 8.1 mph - 0.01 in Snow Light Snow
7:17 PM 30.2 °F 21.9 °F 30.2 °F 100% 29.70 in 0.8 mi WNW 9.2 mph - 0.02 in Snow Light Snow
7:38 PM 30.2 °F 21.3 °F 30.2 °F 100% 29.69 in 0.8 mi NW 10.4 mph - 0.05 in Snow Light Snow
7:49 PM 30.2 °F 21.3 °F 30.2 °F 100% 29.68 in 1.0 mi NW 10.4 mph - 0.06 in Snow Light Snow
7:53 PM 30.0 °F 20.5 °F 30.0 °F 100% 29.76 in 1.0 mi NW 11.5 mph - 0.06 in Snow Light Snow
8:33 PM 30.2 °F 20.2 °F 30.2 °F 100% 29.70 in 0.8 mi WNW 12.7 mph - 0.03 in Snow Light Snow
8:41 PM 30.2 °F 20.2 °F 30.2 °F 100% 29.69 in 0.5 mi NW 12.7 mph - N/A Fog , Snow Snow
8:53 PM 30.0 °F 20.0 °F 30.0 °F 100% 29.77 in 0.5 mi NW 12.7 mph - 0.07 in Fog , Snow Snow
9:05 PM 30.2 °F 18.5 °F 28.4 °F 93% 29.69 in 0.8 mi NW 17.3 mph - 0.02 in Snow Light Snow
9:14 PM 30.2 °F 18.9 °F 28.4 °F 93% 29.70 in 1.0 mi NW 16.1 mph - 0.03 in Snow Light Snow
9:30 PM 28.4 °F 16.6 °F 28.4 °F 100% 29.69 in 2.0 mi NW 16.1 mph - 0.03 in Snow Light Snow
9:53 PM 28.9 °F 16.9 °F 27.0 °F 92% 29.79 in 2.5 mi WNW 17.3 mph - 0.03 in Snow Light Snow
10:10 PM 28.4 °F 15.4 °F 26.6 °F 93% 29.68 in 1.0 mi NW 19.6 mph - 0.01 in Snow Light Snow
10:33 PM 28.4 °F 15.1 °F 26.6 °F 93% 29.69 in 2.5 mi NW 20.7 mph - 0.01 in Snow Light Snow
10:53 PM 28.0 °F 14.3 °F 26.1 °F 92% 29.78 in 2.5 mi NW 21.9 mph - 0.01 in Snow Light Snow
11:25 PM 26.6 °F 13.8 °F 24.8 °F 93% 29.70 in 4.0 mi NW 17.3 mph 27.6 mph 0.00 in Snow Light Snow
11:39 PM 26.6 °F 12.4 °F 24.8 °F 93% 29.71 in 1.8 mi NW 21.9 mph 26.5 mph 0.00 in Snow Light Snow
11:51 PM 26.6 °F 12.7 °F 24.8 °F 93% 29.70 in 1.2 mi NW 20.7 mph - 0.01 in Snow Light Snow
11:53 PM 26.1 °F 12.0 °F 25.0 °F 96% 29.79 in 1.0 mi NW 20.7 mph - 0.01 in Snow Light Snow